loading
|

OBJECT E, 60749

Orbit data source: Space-Track

OBJECT E, 60749 is a satellite owned by Taizhou Xingkong (CN) in SSO that was launched on Thu, 29 Aug 2024 UTC via a GUSHENXING 1 launch vehicle from the Yellow Sea Launch Area, China (YSLA). Unknown objects in Earth's orbit typically refer to objects detected orbiting the Earth but have not yet been identified or cataloged. These objects could be anything from previously untracked satellites, spent rocket stages, debris from satellite collisions, or even natural meteoroids temporarily captured by Earth's gravity.

Loading next visibility...
Loading greatness...
OBJECT E details
Identifier
60749, 2024-153E
Orbit
SSO
Last TLE update7 hours ago
Origin
Flag of CNTaizhou Xingkong (CN / PRC)
ManufacturerShanghai ASES
Mission statusOperational
MissionUnknown
Bus & MotorSUXING, Unknown motor
Mass~50 kg wet, ~50 kg dry
Launch date (UTC)
2024-08-29 (3 weeks ago)
Launch vehicle
GUSHENXING 1
Launch site
Yellow Sea Launch Area, China (YSLA)
Object typeUnknown
Radar Cross SectionMedium (>0.1 m² and <1 m²)

Expand to show TLE details & history

TLE from 7 hours ago
0 OBJECT E
1 60749U 24153E   24261.61655840  .00070855  00000-0  42419-2 0  9998
2 60749  97.6176  19.0410 0015644 222.4764 137.5256 15.10611737  2931
Epoch: 2024-09-17T14:47Z
Definitive object data (Epoch: 2024-09-17T14:47:50.645Z)
Latitude-0.00002°
Longitude160.05133°
Altitude545.39 km
Speed7.585 km/s
True Right ascension01h 16m 09s
True Declination0° 00' 00"
Sunlit
Object was in full shadow at TLE epoch
Predictive object data (real-time)
Latitude46.66018°
Longitude-11.55796°
Altitude541.175 km
Speed7.596 km/s
Apparent Right ascension07h 36m 35s
Apparent Declination45° 16' 08"
Sunlit
Object is in daylight
Predictive observer data (real-time)
Local Sidereal Time14:33:25
Azimuth313.864° NW
Elevation18.867°
Doppler factor1
Orbital elements
Apogee542.13 km
Perigee520.512 km
Semi-major axis6,909.458 km
Eccentricity0.0015644
Inclination97.6176°
RAAN19.041°
Arg. of periapsis222.4764°
True anomaly137.64648°
Mean anomaly137.5256°
Eccentric anomaly137.58606°
Mean motion3.779 °/min
BSTAR0.0042419
Period95.26 mins
No data available

OBJECT E Visibility forecast

Observer location: 39.9160978°, -105.1181434

OBJECT E is not visible in the next 10 days
Span
Click to sort rows by Start time (UTC) header in descending order
Start Az.
Max El. time (UTC)
Max El. Az.
Max El.
End time (UTC)
End Az.